[[{"header":{"parameterUnit":"m.s-1","parameterCategory":1,"la1":30.2991,"la2":30.254,"lo1":-89.0895,"lo2":-89.0444,"dy":0.0017,"dx":0.0017,"nx":28,"ny":28,"refTime":"2025-12-22T03:00:00:Z","depth":0,"parameterNumber":2,"parameterNumberName":"U-component_of_WINDS"},"data":[0,0,0,0,0,0,0,0,0,0,0,0,0,0,0,0,0,0,0,0,0,0,0,0,0,0,0,0,0,0,0,0,0,0,0,0,0,0,0,0,0,0,0,0,0,0,0,0,0,0,0,0,0,0,0,0,0,0,-2.6894,-2.6894,0,-2.6894,-2.6894,-2.6894,-2.6826,-2.6824,-2.6822,-2.6821,-2.682,-2.6822,-2.6824,0,0,0,0,0,0,0,0,0,0,0,0,0,-2.6833,-2.6834,-2.6894,-2.6894,-2.6894,-2.6894,-2.6894,-2.6894,-2.6826,-2.6824,-2.6822,-2.682,-2.682,-2.6822,-2.6824,0,0,0,0,0,0,0,0,0,0,0,0,0,-2.6849,-2.6835,-2.6894,-2.686,-2.6857,-2.6894,-2.6894,-2.6894,-2.6827,-2.6824,-2.6821,-2.6819,-2.6819,-2.6822,-2.6824,-2.6894,0,0,-2.6832,-2.6833,0,0,0,0,0,0,0,0,-2.6848,-2.6851,-2.6865,-2.6862,-2.6859,-2.6857,-2.6873,-2.6894,-2.6827,-2.6838,-2.6821,-2.6817,-2.6835,-2.6836,-2.6842,-2.6894,-2.6894,-2.6832,-2.6833,-2.6834,-2.6835,0,0,0,0,0,0,0,-2.6847,-2.6851,-2.6894,-2.6865,-2.6862,-2.6844,-2.6844,-2.6876,-2.6852,-2.6837,-2.6832,-2.6833,-2.6833,-2.684,-2.6841,-2.6894,-2.6832,-2.6834,-2.6836,-2.6837,-2.7003,-2.7006,0,0,0,0,0,0,-2.6851,-2.685,-2.6894,-2.6894,-2.6847,-2.6848,-2.6847,-2.6861,-2.6851,-2.6847,-2.6835,-2.683,-2.6837,-2.6838,-2.6841,-2.6922,-2.6834,-2.6837,-2.6838,-2.7,-2.7004,-2.7007,0,0,0,0,0,0,-2.685,-2.6855,-2.6894,-2.6871,-2.6874,-2.6852,-2.6868,-2.6862,-2.6869,-2.685,-2.6845,-2.6847,-2.6835,-2.6837,-2.6881,-2.6921,-2.6838,-2.684,-2.6997,-2.7001,-2.7005,-2.7084,0,0,0,0,0,0,-2.6848,-2.6855,-2.6882,-2.6872,-2.6876,-2.6934,-2.687,-2.6864,-2.6874,-2.6866,-2.686,-2.6856,-2.6833,-2.6878,-2.6884,-2.6923,-2.6842,-2.6993,-2.6999,-2.7004,-2.7078,-2.7091,-2.7102,0,0,0,0,0,-2.6846,-2.6904,-2.6883,-2.6889,-2.6908,-2.6937,-2.6939,-2.6911,-2.6877,-2.6903,-2.6891,-2.6856,-2.6916,-2.6883,-2.6889,-2.6929,-2.699,-2.6997,-2.7003,-2.7073,-2.7089,-2.7102,0,0,0,0,0,0,-2.6918,-2.6902,-2.6879,-2.6935,-2.6938,-2.6925,-2.6957,-2.6929,-2.6941,-2.6934,-2.6899,-2.6898,-2.6948,-2.6943,-2.6906,-2.6997,-2.6947,-2.6955,-2.6998,-2.7012,-2.7024,-2.7024,-2.6844,0,0,0,0,0,-2.694,-2.6965,-2.6949,-2.7,-2.7003,-2.698,-2.6991,-2.697,-2.6972,-2.6972,-2.6963,-2.6966,-2.6985,-2.6999,-2.7015,-2.7078,-2.7075,-2.7109,-2.712,-2.713,-2.7137,-2.717,-2.7185,-2.7028,-2.7028,-2.7028,0,0,-2.6986,-2.6981,-2.6998,-2.7014,-2.7014,-2.704,-2.6982,-2.7012,-2.7031,-2.6977,-2.7017,-2.7011,-2.7012,-2.7065,-2.7088,-2.7063,-2.718,-2.7139,-2.7147,-2.7148,-2.7178,-2.7193,-2.7206,-2.7033,-2.7032,-2.7031,0,0,-2.7084,-2.7082,-2.7124,-2.7126,-2.7126,-2.7111,-2.7121,-2.7113,-2.7107,-2.7148,-2.7108,-2.713,-2.7164,-2.7167,-2.7172,-2.7272,-2.724,-2.7279,-2.734,-2.7373,-2.7385,-2.7396,-2.7431,-2.7444,-2.7286,-2.7286,-2.7286,0,-2.7141,-2.7179,-2.7149,-2.7182,-2.7191,-2.7144,-2.7187,-2.7189,-2.7195,-2.7202,-2.7174,-2.7216,-2.7213,-2.7266,-2.7291,-2.7297,-2.7308,-2.7279,-2.7386,-2.7396,-2.7406,-2.7439,-2.7452,-2.7291,-2.729,-2.729,-2.7289,0,-2.7249,-2.7276,-2.731,-2.7318,-2.733,-2.7368,-2.7344,-2.736,-2.7338,-2.7326,-2.7368,-2.7363,-2.7378,-2.739,-2.7368,-2.744,-2.7425,-2.7392,-2.7341,-2.7426,-2.7456,-2.7469,-2.7297,-2.7296,-2.7294,-2.7293,0,0,-2.739,-2.7382,-2.7395,-2.7398,-2.7396,-2.7416,-2.7452,-2.7468,-2.7482,-2.7488,-2.7517,-2.7548,-2.7518,-2.7524,-2.7503,-2.7531,-2.761,-2.7494,-2.7494,-2.7516,-2.7689,-2.7714,-2.7729,-2.759,-2.7592,-2.7594,-2.7689,0,-2.7484,-2.7545,-2.752,-2.7583,-2.7608,-2.7564,-2.7596,-2.7598,-2.7588,-2.7607,-2.7596,-2.7618,-2.7577,-2.758,-2.7607,-2.7595,-2.7645,-2.7588,-2.7616,-2.7617,-2.7617,-2.7745,-2.7771,-2.7861,-2.7701,-2.7703,-2.7705,0,-2.7601,-2.7613,-2.7679,-2.7673,-2.7683,-2.7711,-2.7724,-2.7743,-2.7745,-2.7735,-2.7744,-2.7716,-2.7751,-2.7701,-2.7748,-2.7711,-2.7721,-2.7717,-2.772,-2.7721,-2.7666,-2.7749,-2.7889,-2.7902,-2.7723,-2.7722,-2.772,0,-2.7697,-2.773,-2.7773,-2.7778,-2.7772,-2.7793,-2.7792,-2.7791,-2.7802,-2.7813,-2.782,-2.7835,-2.7843,-2.7855,-2.7832,-2.7798,-2.7883,-2.7831,-2.7875,-2.7876,-2.7894,-2.7893,-2.8037,-2.7902,-2.7902,-2.7902,-2.7901,0,-2.7805,-2.7847,-2.7816,-2.7843,-2.7889,-2.786,-2.7906,-2.79,-2.79,-2.7924,-2.7888,-2.7912,-2.7881,-2.7902,-2.7885,-2.7926,-2.793,-2.7923,-2.7918,-2.7926,-2.7927,-2.7932,-2.7925,-2.7905,-2.7905,-2.7904,-2.7903,0,-2.7919,-2.7901,-2.7945,-2.7937,-2.7936,-2.797,-2.7963,-2.7987,-2.7975,-2.8007,-2.8012,-2.7993,-2.8016,-2.7995,-2.8017,-2.8005,-2.8061,-2.8047,-2.806,-2.8056,-2.8101,-2.8097,-2.8252,-2.8271,-2.8125,-2.8127,-2.8128,0,-2.7988,-2.802,-2.8015,-2.8029,-2.8031,-2.8054,-2.8065,-2.8039,-2.8052,-2.8057,-2.8081,-2.8101,-2.8115,-2.8154,-2.8141,-2.8158,-2.8144,-2.8197,-2.8146,-2.8153,-2.8144,-2.8142,-2.8145,-2.8207,-2.8209,-2.821,-2.8211,0,-2.8113,-2.8103,-2.8121,-2.8136,-2.8151,-2.8162,-2.817,-2.8183,-2.8156,-2.8173,-2.8196,-2.8207,-2.823,-2.825,-2.8263,-2.8261,-2.8232,-2.8228,-2.8239,-2.8247,-2.8254,-2.825,-2.8088,-2.8224,-2.8223,-2.8222,-2.8221,-2.8221,-2.8207,-2.8233,-2.8234,-2.8255,-2.8259,-2.8267,-2.829,-2.8281,-2.83,-2.8316,-2.83,-2.8328,-2.8329,-2.8344,-2.8346,-2.8367,-2.8345,-2.8361,-2.8365,-2.8369,-2.8376,-2.8251,-2.837,-2.8369,-2.8369,-2.8368,-2.8368,0,-2.8329,-2.8328,-2.8349,-2.8361,-2.8378,-2.835,-2.8357,-2.8373,-2.8399,-2.8403,-2.8418,-2.8445,-2.8465,-2.8455,-2.8472,-2.8491,-2.8478,-2.8497,-2.8494,-2.8495,-2.8395,-2.8383,-2.8507,-2.8507,-2.8507,-2.8507,-2.8507,-2.8507,-2.8395,-2.8438,-2.8428,-2.8472,-2.847,-2.8498,-2.8505,-2.8512,-2.8515,-2.8547,-2.8564,-2.8557,-2.8556,-2.8572,-2.8589,-2.8586,-2.8594,-2.8617,-2.8608,-2.8515,-2.8502,-2.8489,-2.8477,-2.8619,-2.8619,-2.8706,-2.8707,-2.8708]},{"header":{"parameterUnit":"m.s-1","parameterCategory":1,"la1":30.2991,"la2":30.254,"lo1":-89.0895,"lo2":-89.0444,"dy":0.0017,"dx":0.0017,"nx":28,"ny":28,"refTime":"2025-12-22T03:00:00:Z","depth":0,"parameterNumber":3,"parameterNumberName":"V-component_of_WINDS"},"data":[0,0,0,0,0,0,0,0,0,0,0,0,0,0,0,0,0,0,0,0,0,0,0,0,0,0,0,0,0,0,0,0,0,0,0,0,0,0,0,0,0,0,0,0,0,0,0,0,0,0,0,0,0,0,0,0,0,0,0.2458,0.2459,0,0.2504,0.2505,0.2506,0.2567,0.2568,0.2569,0.257,0.2614,0.2615,0.2615,0,0,0,0,0,0,0,0,0,0,0,0,0,0.2422,0.2422,0.2458,0.2459,0.2459,0.2504,0.2505,0.2506,0.2567,0.2568,0.2569,0.2571,0.2614,0.2615,0.2615,0,0,0,0,0,0,0,0,0,0,0,0,0,0.245,0.2422,0.2458,0.2495,0.2499,0.2504,0.2505,0.2506,0.2567,0.2568,0.257,0.2571,0.2614,0.2615,0.2615,0.2586,0,0,0.2616,0.2616,0,0,0,0,0,0,0,0,0.2448,0.2451,0.2489,0.2493,0.2497,0.2532,0.2509,0.2533,0.2566,0.2541,0.257,0.2572,0.2585,0.2588,0.2593,0.2588,0.259,0.2616,0.2616,0.2616,0.2616,0,0,0,0,0,0,0,0.2446,0.2449,0.2476,0.249,0.2495,0.251,0.2515,0.2513,0.2554,0.2543,0.2548,0.2553,0.2588,0.2593,0.2595,0.2591,0.2616,0.2616,0.2616,0.2617,0.2567,0.2566,0,0,0,0,0,0,0.2439,0.2447,0.2475,0.2478,0.2476,0.2509,0.2515,0.2519,0.2554,0.2561,0.2551,0.2555,0.2592,0.2594,0.2597,0.2567,0.2616,0.2617,0.2617,0.2569,0.2567,0.2565,0,0,0,0,0,0,0.2438,0.2441,0.2473,0.2464,0.2469,0.2508,0.2512,0.2519,0.2524,0.256,0.2567,0.2549,0.2593,0.2596,0.2589,0.257,0.2617,0.2617,0.257,0.2568,0.2566,0.2507,0,0,0,0,0,0,0.2437,0.244,0.2429,0.2463,0.2469,0.2465,0.251,0.2519,0.2525,0.2531,0.256,0.2566,0.2594,0.2588,0.2589,0.2571,0.2617,0.2572,0.2569,0.2567,0.2511,0.2503,0.2496,0,0,0,0,0,0.2435,0.241,0.2429,0.2432,0.2457,0.2464,0.2467,0.2501,0.2523,0.2513,0.2537,0.2565,0.2571,0.2587,0.2589,0.257,0.2574,0.257,0.2567,0.2514,0.2504,0.2496,0,0,0,0,0,0,0.2371,0.2415,0.2436,0.2421,0.2438,0.2474,0.2462,0.2489,0.2499,0.2504,0.2544,0.255,0.2539,0.2554,0.257,0.2545,0.2577,0.2574,0.2536,0.2527,0.252,0.2517,0.2618,0,0,0,0,0,0.2355,0.2357,0.2395,0.2378,0.2386,0.2422,0.2426,0.2451,0.247,0.2477,0.25,0.2517,0.2523,0.2526,0.2533,0.2513,0.2521,0.2501,0.2494,0.2488,0.2485,0.2477,0.2469,0.2554,0.2554,0.2554,0,0,0.2322,0.2347,0.2345,0.2366,0.2382,0.2384,0.2428,0.2427,0.2428,0.2477,0.2473,0.249,0.2511,0.2498,0.2494,0.251,0.2463,0.2483,0.2478,0.2479,0.2473,0.2465,0.2458,0.2552,0.2552,0.2552,0,0,0.2264,0.2282,0.2271,0.2287,0.2312,0.2337,0.2334,0.2366,0.238,0.2377,0.2414,0.2416,0.2425,0.2439,0.2448,0.2397,0.2425,0.2399,0.236,0.2353,0.2346,0.234,0.2324,0.2317,0.2395,0.2395,0.2395,0,0.2219,0.2223,0.2261,0.2259,0.2268,0.2314,0.2303,0.2317,0.2342,0.2347,0.2365,0.238,0.2397,0.2389,0.2377,0.2382,0.2381,0.2395,0.2344,0.2339,0.2334,0.2319,0.2312,0.2392,0.2392,0.2393,0.2393,0,0.2169,0.2171,0.2159,0.2185,0.2192,0.2185,0.2223,0.2225,0.225,0.2273,0.227,0.2293,0.2307,0.2307,0.2329,0.2302,0.2312,0.2337,0.237,0.2322,0.2309,0.2303,0.2387,0.2388,0.2389,0.239,0,0,0.2069,0.2118,0.2113,0.2127,0.2158,0.2161,0.2157,0.2172,0.2175,0.2191,0.2189,0.2197,0.2221,0.223,0.2256,0.2249,0.221,0.2275,0.2276,0.2263,0.2183,0.2165,0.2158,0.2228,0.2227,0.2227,0.2182,0,0.2018,0.2015,0.205,0.2037,0.2041,0.2086,0.2082,0.2102,0.2123,0.2129,0.2153,0.2159,0.2189,0.2196,0.2191,0.2215,0.2194,0.2219,0.2227,0.2227,0.2221,0.2151,0.2131,0.2088,0.2177,0.2176,0.2175,0,0.1956,0.1972,0.196,0.1995,0.1998,0.1994,0.2012,0.2017,0.2041,0.2057,0.2069,0.2099,0.2098,0.2129,0.2129,0.2145,0.215,0.2163,0.2162,0.2165,0.2199,0.2152,0.2075,0.2068,0.2167,0.2168,0.2168,0,0.1887,0.1904,0.19,0.191,0.195,0.1947,0.1964,0.1989,0.1996,0.2012,0.2017,0.2032,0.204,0.205,0.2084,0.2103,0.208,0.2113,0.2094,0.2093,0.2087,0.2087,0.2011,0.2089,0.2089,0.2089,0.209,0,0.1826,0.1817,0.187,0.1868,0.186,0.1901,0.1891,0.1912,0.1934,0.1937,0.1976,0.1977,0.2021,0.2027,0.2053,0.205,0.2053,0.2066,0.2073,0.2063,0.2062,0.2068,0.2072,0.2088,0.2088,0.2089,0.2089,0,0.1747,0.1782,0.1781,0.182,0.183,0.1822,0.1856,0.1855,0.188,0.1883,0.1886,0.1925,0.1935,0.1969,0.1987,0.2004,0.1993,0.2006,0.1986,0.1991,0.197,0.1972,0.1895,0.1888,0.197,0.1969,0.1968,0,0.1705,0.17,0.174,0.1745,0.1761,0.1768,0.1777,0.1817,0.1825,0.1852,0.1849,0.1862,0.1875,0.1888,0.1918,0.1932,0.1947,0.1919,0.1949,0.194,0.1948,0.1948,0.1948,0.1912,0.1911,0.191,0.1909,0,0.1629,0.1648,0.166,0.1678,0.1688,0.1704,0.1722,0.1724,0.1769,0.1776,0.1787,0.1797,0.1817,0.183,0.1849,0.1866,0.1895,0.19,0.1897,0.1886,0.1875,0.1883,0.1969,0.1901,0.1902,0.1903,0.1903,0.1904,0.1569,0.1568,0.1596,0.1608,0.1627,0.1644,0.1646,0.1672,0.1683,0.1703,0.1726,0.1735,0.176,0.179,0.1805,0.1813,0.1829,0.1823,0.1822,0.182,0.1816,0.1874,0.1816,0.1816,0.1817,0.1817,0.1817,0,0.1496,0.1518,0.1529,0.1554,0.1564,0.1592,0.1615,0.1621,0.1629,0.1651,0.1664,0.1678,0.1691,0.1723,0.1739,0.174,0.1754,0.1743,0.1743,0.1747,0.18,0.1802,0.1731,0.1731,0.1731,0.1731,0.1731,0.1731,0.146,0.1459,0.1481,0.1491,0.1512,0.1523,0.1533,0.1549,0.1567,0.1582,0.1594,0.1615,0.1641,0.166,0.1674,0.1683,0.1688,0.1673,0.1686,0.1735,0.1743,0.1751,0.1753,0.1673,0.1673,0.1633,0.1632,0.1632]}]]